START_TIME,STEP,MOV.,M6,t_acc.,M7,t_acc.,M19,t_acc.,H36,t_acc.
1981-08-28 18:00:27.790 ,1,1,0.,12.0,0.,12.0,0.,12.0,0.,12.0
1981-08-28 18:00:39.790 ,1,1,0.,12.0,0.,12.0,0.,12.0,0.,12.0
1981-08-28 18:00:51.790 ,2,1,0.,12.0,0.,12.0,0.,12.0,0.,12.0
1981-08-28 18:01:03.790 ,2,1,0.,12.0,0.,12.0,0.,12.0,0.,12.0
1981-08-28 18:01:15.790 ,3,1,0.,12.0,0.,12.0,0.,12.0,0.,12.0
1981-08-28 18:01:27.790 ,3,1,0.,12.0,0.,12.0,0.,12.0,0.,12.0
1981-08-28 18:01:39.790 ,4,1,0.,12.0,0.,12.0,0.,12.0,0.,12.0
1981-08-28 18:01:51.790 ,4,1,0.,12.0,0.,12.0,0.,12.0,0.,12.0
1981-08-28 18:02:03.790 ,5,1,0.,12.0,0.,12.0,0.,12.0,0.,12.0
1981-08-28 18:02:15.790 ,5,1,0.,12.0,0.,12.0,0.,12.0,0.,12.0
1981-08-28 18:02:27.790 ,6,1,0.,12.0,0.,12.0,0.,12.0,0.,12.0
1981-08-28 18:02:39.790 ,6,1,0.,12.0,0.,12.0,0.,12.0,0.,12.0
1981-08-28 18:02:51.790 ,7,1,0.,12.0,0.,12.0,0.,12.0,0.,12.0
1981-08-28 18:03:03.790 ,7,1,0.,12.0,0.,12.0,0.,12.0,0.,12.0
1981-08-28 18:03:15.790 ,7,1,0.,12.0,0.,12.0,0.,12.0,0.,12.0
1981-08-28 18:03:27.790 ,7,1,0.,12.0,0.,12.0,0.,12.0,0.,12.0
1981-08-28 18:03:39.790 ,7,0,0.,12.0,0.,12.0,0.,12.0,0.,12.0
1981-08-28 18:03:51.790 ,7,0,0.,12.0,0.,12.0,0.,12.0,0.,12.0
1981-08-28 18:04:03.790 ,6,1,0.,12.0,0.,12.0,0.,12.0,0.,12.0
1981-08-28 18:04:15.790 ,6,1,0.,12.0,0.,12.0,0.,12.0,0.,12.0
1981-08-28 18:04:27.790 ,6,0,0.,12.0,0.,12.0,0.,12.0,0.,12.0
1981-08-28 18:04:39.790 ,6,0,0.,12.0,0.,12.0,0.,12.0,0.,12.0
1981-08-28 18:04:51.790 ,5,1,0.,12.0,0.,12.0,0.,12.0,0.,12.0
1981-08-28 18:05:03.790 ,5,1,0.,12.0,0.,12.0,0.,12.0,0.,12.0
1981-08-28 18:05:15.790 ,5,0,0.,12.0,0.,12.0,0.,12.0,0.,12.0
1981-08-28 18:05:27.790 ,5,0,0.,12.0,0.,12.0,0.,12.0,0.,12.0
1981-08-28 18:05:39.790 ,4,1,0.,12.0,0.,12.0,0.,12.0,0.,12.0
1981-08-28 18:05:51.790 ,4,1,0.,12.0,0.,12.0,0.,12.0,0.,12.0
1981-08-28 18:06:03.790 ,4,0,0.,12.0,0.,12.0,0.,12.0,0.,12.0
1981-08-28 18:06:15.790 ,4,0,0.,12.0,0.,12.0,0.,12.0,0.,12.0
1981-08-28 18:06:27.790 ,3,1,0.,12.0,0.,12.0,0.,12.0,0.,12.0
1981-08-28 18:06:39.790 ,3,1,0.,12.0,0.,12.0,0.,12.0,0.,12.0
1981-08-28 18:06:51.790 ,3,0,0.,12.0,0.,12.0,0.,12.0,0.,12.0
1981-08-28 18:07:03.790 ,3,0,0.,12.0,0.,12.0,0.,12.0,0.,12.0
1981-08-28 18:07:15.790 ,2,1,0.,12.0,0.,12.0,0.,12.0,0.,12.0
1981-08-28 18:07:27.790 ,2,1,0.,12.0,0.,12.0,0.,12.0,0.,12.0
1981-08-28 18:07:39.790 ,2,0,0.,12.0,0.,12.0,0.,12.0,0.,12.0
1981-08-28 18:07:51.790 ,2,0,0.,12.0,0.,12.0,0.,12.0,0.,12.0
1981-08-28 18:08:03.790 ,1,1,0.,12.0,0.,12.0,0.,12.0,0.,12.0
1981-08-28 18:08:15.790 ,1,1,0.,12.0,0.,12.0,0.,12.0,0.,12.0
1981-08-28 18:08:27.790 ,1,0,0.,12.0,0.,12.0,0.,12.0,0.,12.0
1981-08-28 18:08:39.790 ,1,0,0.,12.0,0.,12.0,0.,12.0,0.,12.0
1981-08-28 18:08:51.790 ,0,1,0.,12.0,0.,12.0,0.,12.0,0.,12.0
1981-08-28 18:09:03.790 ,0,1,0.,12.0,0.,12.0,0.,12.0,0.,12.0
1981-08-28 18:09:15.790 ,0,0,0.,12.0,0.,12.0,0.,12.0,0.,12.0
1981-08-28 18:09:27.790 ,0,0,0.,12.0,0.,12.0,0.,12.0,0.,12.0
1981-08-28 18:09:39.790 ,0,1,0.,12.0,0.,12.0,0.,12.0,0.,12.0
1981-08-28 18:09:51.790 ,0,1,0.,12.0,0.,12.0,0.,12.0,0.,12.0
1981-08-28 18:10:03.790 ,0,0,0.,12.0,0.,12.0,0.,12.0,0.,12.0
1981-08-28 18:10:15.790 ,0,0,0.,12.0,0.,12.0,0.,12.0,0.,12.0
1981-08-28 18:10:27.790 ,1,1,0.,12.0,0.,12.0,0.,12.0,0.,12.0
1981-08-28 18:10:39.790 ,1,1,0.,12.0,0.,12.0,0.,12.0,0.,12.0
1981-08-28 18:10:51.790 ,1,0,0.,12.0,0.,12.0,0.,12.0,0.,12.0
1981-08-28 18:11:03.790 ,1,0,0.,12.0,0.,12.0,0.,12.0,0.,12.0
1981-08-28 18:11:15.790 ,2,1,0.,12.0,0.,12.0,0.,12.0,0.,12.0
1981-08-28 18:11:27.790 ,2,1,0.,12.0,0.,12.0,0.,12.0,0.,12.0
1981-08-28 18:11:39.790 ,2,0,0.,12.0,0.,12.0,0.,12.0,0.,12.0
1981-08-28 18:11:51.790 ,2,0,0.,12.0,0.,12.0,0.,12.0,0.,12.0
1981-08-28 18:12:03.790 ,3,1,0.,12.0,0.,12.0,0.,12.0,0.,12.0
1981-08-28 18:12:15.790 ,3,1,0.,12.0,0.,12.0,0.,12.0,0.,12.0
1981-08-28 18:12:27.790 ,3,0,0.,12.0,0.,12.0,0.,12.0,0.,12.0
1981-08-28 18:12:39.790 ,3,0,0.,12.0,0.,12.0,0.,12.0,0.,12.0
1981-08-28 18:12:51.790 ,4,1,0.,12.0,0.,12.0,0.,12.0,0.,12.0
1981-08-28 18:13:03.790 ,4,1,0.,12.0,0.,12.0,0.,12.0,0.,12.0
1981-08-28 18:13:15.790 ,4,0,0.,12.0,0.,12.0,0.,12.0,0.,12.0
1981-08-28 18:13:27.790 ,4,0,0.,12.0,0.,12.0,0.,12.0,0.,12.0
1981-08-28 18:13:39.790 ,5,1,0.,12.0,0.,12.0,0.,12.0,0.,12.0
1981-08-28 18:13:51.790 ,5,1,0.,12.0,0.,12.0,0.,12.0,0.,12.0
1981-08-28 18:14:03.790 ,5,0,0.,12.0,0.,12.0,0.,12.0,0.,12.0
1981-08-28 18:14:15.790 ,5,0,0.,12.0,0.,12.0,0.,12.0,0.,12.0
1981-08-28 18:14:27.790 ,6,1,0.,12.0,0.,12.0,0.,12.0,0.,12.0
1981-08-28 18:14:39.790 ,6,1,0.,12.0,0.,12.0,0.,12.0,0.,12.0
1981-08-28 18:14:51.790 ,6,0,0.,12.0,0.,12.0,0.,12.0,0.,12.0
1981-08-28 18:15:03.790 ,6,0,0.,12.0,0.,12.0,0.,12.0,0.,12.0
1981-08-28 18:15:15.790 ,7,1,0.,12.0,0.,12.0,0.,12.0,0.,12.0
1981-08-28 18:15:27.790 ,7,1,0.,12.0,0.,12.0,0.,12.0,0.,12.0
1981-08-28 18:15:39.790 ,7,0,0.,12.0,0.,12.0,0.,12.0,0.,12.0
1981-08-28 18:15:51.790 ,7,0,0.,12.0,0.,12.0,0.,12.0,0.,12.0
1981-08-28 18:16:03.790 ,7,1,0.,12.0,0.,12.0,0.,12.0,0.,12.0
1981-08-28 18:16:15.790 ,7,1,0.,12.0,0.,12.0,0.,12.0,0.,12.0
1981-08-28 18:16:27.790 ,6,1,0.,12.0,0.,12.0,0.,12.0,0.,12.0
1981-08-28 18:16:39.790 ,6,1,0.,12.0,0.,12.0,0.,12.0,0.,12.0
1981-08-28 18:16:51.790 ,5,1,0.,12.0,0.,12.0,0.,12.0,0.,12.0
1981-08-28 18:17:03.790 ,5,1,0.,12.0,0.,12.0,0.,12.0,0.,12.0
1981-08-28 18:17:15.790 ,4,1,0.,12.0,0.,12.0,0.,12.0,0.,12.0
1981-08-28 18:17:27.790 ,4,1,0.,12.0,0.,12.0,0.,12.0,0.,12.0
1981-08-28 18:17:39.790 ,3,1,0.,12.0,0.,12.0,0.,12.0,0.,12.0
1981-08-28 18:17:51.790 ,3,1,0.,12.0,0.,12.0,0.,12.0,0.,12.0
1981-08-28 18:18:03.790 ,2,1,0.,12.0,0.,12.0,0.,12.0,0.,12.0
1981-08-28 18:18:15.790 ,2,1,0.,12.0,0.,12.0,0.,12.0,0.,12.0
1981-08-28 18:18:27.790 ,1,1,0.,12.0,0.,12.0,0.,12.0,0.,12.0
1981-08-28 18:18:39.790 ,1,1,0.,12.0,0.,12.0,0.,12.0,0.,12.0
1981-08-28 18:18:51.790 ,0,1,0.,12.0,0.,12.0,0.,12.0,0.,12.0
1981-08-28 18:19:03.790 ,0,1,0.,12.0,0.,12.0,0.,12.0,0.,12.0
1981-08-28 18:19:15.790 ,0,1,0.,12.0,0.,12.0,0.,12.0,0.,12.0
1981-08-28 18:19:27.790 ,0,1,0.,12.0,0.,12.0,0.,12.0,0.,12.0
1981-08-28 18:19:39.790 ,1,1,0.,12.0,0.,12.0,0.,12.0,0.,12.0
1981-08-28 18:19:51.790 ,1,1,0.,12.0,0.,12.0,0.,12.0,0.,12.0
1981-08-28 18:20:03.790 ,2,1,0.,12.0,0.,12.0,0.,12.0,0.,12.0
1981-08-28 18:20:15.790 ,2,1,0.,12.0,0.,12.0,0.,12.0,0.,12.0
1981-08-28 18:20:27.790 ,3,1,0.,12.0,0.,12.0,0.,12.0,0.,12.0
1981-08-28 18:20:39.790 ,3,1,0.,12.0,0.,12.0,0.,12.0,0.,12.0
1981-08-28 18:20:51.790 ,4,1,0.,12.0,0.,12.0,0.,12.0,0.,12.0
1981-08-28 18:21:03.790 ,4,1,0.,12.0,0.,12.0,0.,12.0,0.,12.0
1981-08-28 18:21:15.790 ,5,1,0.,12.0,0.,12.0,0.,12.0,0.,12.0
1981-08-28 18:21:27.790 ,5,1,0.,12.0,0.,12.0,0.,12.0,0.,12.0
1981-08-28 18:21:39.790 ,6,1,0.,12.0,0.,12.0,0.,12.0,0.,12.0
1981-08-28 18:21:51.790 ,6,1,0.,12.0,0.,12.0,0.,12.0,0.,12.0
1981-08-28 18:22:03.790 ,7,1,0.,12.0,0.,12.0,0.,12.0,0.,12.0
1981-08-28 18:22:15.790 ,7,1,0.,12.0,0.,12.0,0.,12.0,0.,12.0
1981-08-28 18:22:27.790 ,7,1,0.,12.0,0.,12.0,0.,12.0,0.,12.0
1981-08-28 18:22:39.790 ,7,1,0.,12.0,1.,12.0,0.,12.0,0.,12.0
1981-08-28 18:22:51.790 ,7,0,0.,12.0,0.,12.0,0.,12.0,0.,12.0
1981-08-28 18:23:03.790 ,7,0,0.,12.0,0.,12.0,0.,12.0,0.,12.0
1981-08-28 18:23:15.790 ,6,1,0.,12.0,0.,12.0,0.,12.0,0.,12.0
1981-08-28 18:23:27.790 ,6,1,0.,12.0,0.,12.0,0.,12.0,0.,12.0
1981-08-28 18:23:39.790 ,6,0,0.,12.0,0.,12.0,0.,12.0,0.,12.0
1981-08-28 18:23:51.790 ,6,0,0.,12.0,0.,12.0,0.,12.0,0.,12.0
1981-08-28 18:24:03.790 ,5,1,0.,12.0,0.,12.0,0.,12.0,0.,12.0
1981-08-28 18:24:15.790 ,5,1,0.,12.0,0.,12.0,0.,12.0,0.,12.0
1981-08-28 18:24:27.790 ,5,0,0.,12.0,0.,12.0,0.,12.0,0.,12.0
1981-08-28 18:24:39.790 ,5,0,0.,12.0,0.,12.0,0.,12.0,0.,12.0
1981-08-28 18:24:51.790 ,4,1,0.,12.0,0.,12.0,0.,12.0,0.,12.0
1981-08-28 18:25:03.790 ,4,1,0.,12.0,0.,12.0,0.,12.0,0.,12.0
1981-08-28 18:25:15.790 ,4,0,0.,12.0,0.,12.0,0.,12.0,0.,12.0
1981-08-28 18:25:27.790 ,4,0,0.,12.0,0.,12.0,0.,12.0,0.,12.0
1981-08-28 18:25:39.790 ,3,1,0.,12.0,0.,12.0,0.,12.0,0.,12.0
1981-08-28 18:25:51.790 ,3,1,0.,12.0,0.,12.0,0.,12.0,0.,12.0
1981-08-28 18:26:03.790 ,3,0,0.,12.0,0.,12.0,0.,12.0,0.,12.0
1981-08-28 18:26:15.790 ,3,0,0.,12.0,0.,12.0,0.,12.0,0.,12.0
1981-08-28 18:26:27.790 ,2,1,0.,12.0,0.,12.0,0.,12.0,0.,12.0
1981-08-28 18:26:39.790 ,2,1,0.,12.0,0.,12.0,0.,12.0,0.,12.0
1981-08-28 18:26:51.790 ,2,0,0.,12.0,0.,12.0,0.,12.0,0.,12.0
1981-08-28 18:27:03.790 ,2,0,0.,12.0,0.,12.0,0.,12.0,0.,12.0
1981-08-28 18:27:15.790 ,1,1,0.,12.0,0.,12.0,0.,12.0,0.,12.0
1981-08-28 18:27:27.790 ,1,1,0.,12.0,0.,12.0,0.,12.0,0.,12.0
1981-08-28 18:27:39.790 ,1,0,0.,12.0,0.,12.0,0.,12.0,0.,12.0
1981-08-28 18:27:51.790 ,1,0,0.,12.0,0.,12.0,0.,12.0,0.,12.0
1981-08-28 18:28:03.790 ,0,1,0.,12.0,0.,12.0,0.,12.0,0.,12.0
1981-08-28 18:28:15.790 ,0,1,0.,12.0,0.,12.0,0.,12.0,0.,12.0
1981-08-28 18:28:27.790 ,0,0,0.,12.0,0.,12.0,0.,12.0,0.,12.0
1981-08-28 18:28:39.790 ,0,0,0.,12.0,0.,12.0,0.,12.0,0.,12.0
1981-08-28 18:28:51.790 ,0,1,0.,12.0,0.,12.0,0.,12.0,0.,12.0
1981-08-28 18:29:03.790 ,0,1,0.,12.0,0.,12.0,0.,12.0,0.,12.0
1981-08-28 18:29:15.790 ,0,0,0.,12.0,0.,12.0,0.,12.0,0.,12.0
1981-08-28 18:29:27.790 ,0,0,0.,12.0,0.,12.0,0.,12.0,0.,12.0
1981-08-28 18:29:39.790 ,1,1,0.,12.0,0.,12.0,0.,12.0,0.,12.0
1981-08-28 18:29:51.790 ,1,1,0.,12.0,0.,12.0,0.,12.0,0.,12.0
1981-08-28 18:30:03.790 ,1,0,0.,12.0,0.,12.0,0.,12.0,0.,12.0
1981-08-28 18:30:15.790 ,1,0,0.,12.0,0.,12.0,0.,12.0,0.,12.0
1981-08-28 18:30:27.790 ,2,1,0.,12.0,0.,12.0,0.,12.0,0.,12.0
1981-08-28 18:30:39.790 ,2,1,0.,12.0,0.,12.0,0.,12.0,0.,12.0
1981-08-28 18:30:51.790 ,2,0,0.,12.0,0.,12.0,0.,12.0,0.,12.0
1981-08-28 18:31:03.790 ,2,0,0.,12.0,0.,12.0,0.,12.0,0.,12.0
1981-08-28 18:31:15.790 ,3,1,0.,12.0,0.,12.0,0.,12.0,0.,12.0
1981-08-28 18:31:27.790 ,3,1,0.,12.0,0.,12.0,0.,12.0,0.,12.0
1981-08-28 18:31:39.790 ,3,0,0.,12.0,0.,12.0,0.,12.0,0.,12.0
1981-08-28 18:31:51.790 ,3,0,0.,12.0,0.,12.0,0.,12.0,0.,12.0
1981-08-28 18:32:03.790 ,4,1,0.,12.0,0.,12.0,0.,12.0,0.,12.0
1981-08-28 18:32:15.790 ,4,1,0.,12.0,0.,12.0,0.,12.0,0.,12.0
1981-08-28 18:32:27.790 ,4,0,0.,12.0,0.,12.0,0.,12.0,0.,12.0
1981-08-28 18:32:39.790 ,4,0,0.,12.0,0.,12.0,0.,12.0,0.,12.0
1981-08-28 18:32:51.790 ,5,1,0.,12.0,0.,12.0,0.,12.0,0.,12.0
1981-08-28 18:33:03.790 ,5,1,0.,12.0,0.,12.0,0.,12.0,0.,12.0
1981-08-28 18:33:15.790 ,5,0,0.,12.0,0.,12.0,0.,12.0,0.,12.0
1981-08-28 18:33:27.790 ,5,0,0.,12.0,0.,12.0,0.,12.0,0.,12.0
1981-08-28 18:33:39.790 ,6,1,0.,12.0,0.,12.0,0.,12.0,0.,12.0
1981-08-28 18:33:51.790 ,6,1,0.,12.0,0.,12.0,0.,12.0,0.,12.0
1981-08-28 18:34:03.790 ,6,0,0.,12.0,0.,12.0,0.,12.0,0.,12.0
1981-08-28 18:34:15.790 ,6,0,0.,12.0,0.,12.0,0.,12.0,0.,12.0
1981-08-28 18:34:27.790 ,7,1,0.,12.0,0.,12.0,0.,12.0,0.,12.0
1981-08-28 18:34:39.790 ,7,1,0.,12.0,0.,12.0,0.,12.0,0.,12.0
1981-08-28 18:34:51.790 ,7,0,0.,12.0,0.,12.0,0.,12.0,0.,12.0
1981-08-28 18:35:03.790 ,7,0,0.,12.0,0.,12.0,0.,12.0,0.,12.0
1981-08-28 18:35:15.790 ,7,1,0.,12.0,0.,12.0,0.,12.0,0.,12.0
1981-08-28 18:35:27.790 ,7,1,0.,12.0,0.,12.0,0.,12.0,0.,12.0
1981-08-28 18:35:39.790 ,6,1,0.,12.0,0.,12.0,0.,12.0,0.,12.0
1981-08-28 18:35:51.790 ,6,1,0.,12.0,0.,12.0,0.,12.0,0.,12.0
1981-08-28 18:36:03.790 ,5,1,0.,12.0,0.,12.0,0.,12.0,0.,12.0
1981-08-28 18:36:15.790 ,5,1,0.,12.0,0.,12.0,0.,12.0,0.,12.0
1981-08-28 18:36:27.790 ,4,1,0.,12.0,0.,12.0,0.,12.0,0.,12.0
1981-08-28 18:36:39.790 ,4,1,0.,12.0,0.,12.0,0.,12.0,0.,12.0
1981-08-28 18:36:51.790 ,3,1,0.,12.0,0.,12.0,0.,12.0,0.,12.0
1981-08-28 18:37:03.790 ,3,1,0.,12.0,0.,12.0,0.,12.0,0.,12.0
1981-08-28 18:37:15.790 ,2,1,0.,12.0,0.,12.0,0.,12.0,0.,12.0
1981-08-28 18:37:27.790 ,2,1,0.,12.0,0.,12.0,0.,12.0,0.,12.0
1981-08-28 18:37:39.790 ,1,1,0.,12.0,0.,12.0,0.,12.0,0.,12.0
1981-08-28 18:37:51.790 ,1,1,0.,12.0,0.,12.0,0.,12.0,0.,12.0
1981-08-28 18:38:03.790 ,0,1,0.,12.0,0.,12.0,0.,12.0,0.,12.0
1981-08-28 18:38:15.790 ,0,1,0.,12.0,0.,12.0,0.,12.0,0.,12.0
1981-08-28 18:38:27.790 ,0,1,0.,12.0,0.,12.0,0.,12.0,0.,12.0
1981-08-28 18:38:39.790 ,0,1,0.,12.0,0.,12.0,0.,12.0,0.,12.0
1981-08-28 18:38:51.790 ,1,1,0.,12.0,0.,12.0,0.,12.0,0.,12.0
1981-08-28 18:39:03.790 ,1,1,0.,12.0,0.,12.0,0.,12.0,0.,12.0
1981-08-28 18:39:15.790 ,2,1,0.,12.0,0.,12.0,0.,12.0,0.,12.0
1981-08-28 18:39:27.790 ,2,1,0.,12.0,0.,12.0,0.,12.0,0.,12.0
1981-08-28 18:39:39.790 ,3,1,0.,12.0,0.,12.0,0.,12.0,0.,12.0
1981-08-28 18:39:51.790 ,3,1,0.,12.0,0.,12.0,0.,12.0,0.,12.0
1981-08-28 18:40:03.780 ,4,1,0.,12.0,0.,12.0,0.,12.0,0.,12.0
1981-08-28 18:40:15.780 ,4,1,0.,12.0,0.,12.0,0.,12.0,0.,12.0
1981-08-28 18:40:27.780 ,5,1,0.,12.0,0.,12.0,0.,12.0,0.,12.0
1981-08-28 18:40:39.780 ,5,1,0.,12.0,0.,12.0,0.,12.0,0.,12.0
1981-08-28 18:40:51.780 ,6,1,0.,12.0,0.,12.0,0.,12.0,0.,12.0
1981-08-28 18:41:03.780 ,6,1,0.,12.0,0.,12.0,0.,12.0,0.,12.0
1981-08-28 18:41:15.780 ,7,1,0.,12.0,0.,12.0,0.,12.0,0.,12.0
1981-08-28 18:41:27.780 ,7,1,0.,12.0,0.,12.0,0.,12.0,0.,12.0
1981-08-28 18:41:39.780 ,7,1,0.,12.0,0.,12.0,0.,12.0,0.,12.0
1981-08-28 18:41:51.780 ,7,1,0.,12.0,0.,12.0,0.,12.0,0.,12.0
1981-08-28 18:42:03.780 ,7,0,0.,12.0,0.,12.0,0.,12.0,0.,12.0
1981-08-28 18:42:15.780 ,7,0,0.,12.0,0.,12.0,0.,12.0,0.,12.0
1981-08-28 18:42:27.780 ,6,1,0.,12.0,0.,12.0,0.,12.0,0.,12.0
1981-08-28 18:42:39.780 ,6,1,0.,12.0,0.,12.0,0.,12.0,0.,12.0
1981-08-28 18:42:51.780 ,6,0,0.,12.0,0.,12.0,0.,12.0,0.,12.0
1981-08-28 18:43:03.780 ,6,0,0.,12.0,0.,12.0,0.,12.0,0.,12.0
1981-08-28 18:43:15.780 ,5,1,0.,12.0,0.,12.0,0.,12.0,0.,12.0
1981-08-28 18:43:27.780 ,5,1,0.,12.0,0.,12.0,0.,12.0,0.,12.0
1981-08-28 18:43:39.780 ,5,0,0.,12.0,0.,12.0,0.,12.0,0.,12.0
1981-08-28 18:43:51.780 ,5,0,0.,12.0,0.,12.0,0.,12.0,0.,12.0
1981-08-28 18:44:03.780 ,4,1,0.,12.0,0.,12.0,0.,12.0,0.,12.0
1981-08-28 18:44:15.780 ,4,1,0.,12.0,0.,12.0,0.,12.0,0.,12.0
1981-08-28 18:44:27.780 ,4,0,0.,12.0,0.,12.0,0.,12.0,0.,12.0
1981-08-28 18:44:39.780 ,4,0,0.,12.0,0.,12.0,0.,12.0,0.,12.0
1981-08-28 18:44:51.780 ,3,1,0.,12.0,0.,12.0,0.,12.0,0.,12.0
1981-08-28 18:45:03.780 ,3,1,0.,12.0,0.,12.0,0.,12.0,0.,12.0
1981-08-28 18:45:15.780 ,3,0,0.,12.0,0.,12.0,0.,12.0,0.,12.0
1981-08-28 18:45:27.780 ,3,0,0.,12.0,0.,12.0,0.,12.0,0.,12.0
1981-08-28 18:45:39.780 ,2,1,0.,12.0,0.,12.0,0.,12.0,0.,12.0
1981-08-28 18:45:51.780 ,2,1,0.,12.0,0.,12.0,0.,12.0,0.,12.0
1981-08-28 18:46:03.780 ,2,0,0.,12.0,0.,12.0,0.,12.0,0.,12.0
1981-08-28 18:46:15.780 ,2,0,0.,12.0,0.,12.0,0.,12.0,0.,12.0
1981-08-28 18:46:27.780 ,1,1,0.,12.0,0.,12.0,0.,12.0,0.,12.0
1981-08-28 18:46:39.780 ,1,1,0.,12.0,0.,12.0,0.,12.0,0.,12.0
1981-08-28 18:46:51.780 ,1,0,0.,12.0,0.,12.0,0.,12.0,0.,12.0
1981-08-28 18:47:03.780 ,1,0,0.,12.0,0.,12.0,0.,12.0,0.,12.0
1981-08-28 18:47:15.780 ,0,1,0.,12.0,0.,12.0,0.,12.0,0.,12.0
1981-08-28 18:47:27.780 ,0,1,0.,12.0,0.,12.0,0.,12.0,0.,12.0
1981-08-28 18:47:39.780 ,0,0,0.,12.0,0.,12.0,0.,12.0,0.,12.0
1981-08-28 18:47:51.780 ,0,0,0.,12.0,0.,12.0,0.,12.0,0.,12.0
1981-08-28 18:48:03.780 ,0,1,0.,12.0,0.,12.0,0.,12.0,0.,12.0
1981-08-28 18:48:15.780 ,0,1,0.,12.0,0.,12.0,0.,12.0,0.,12.0
1981-08-28 18:48:27.780 ,0,0,0.,12.0,0.,12.0,0.,12.0,0.,12.0
1981-08-28 18:48:39.780 ,0,0,0.,12.0,0.,12.0,0.,12.0,0.,12.0
1981-08-28 18:48:51.780 ,1,1,0.,12.0,0.,12.0,0.,12.0,0.,12.0
1981-08-28 18:49:03.780 ,1,1,0.,12.0,0.,12.0,0.,12.0,0.,12.0
1981-08-28 18:49:15.780 ,1,0,0.,12.0,0.,12.0,0.,12.0,0.,12.0
1981-08-28 18:49:27.780 ,1,0,0.,12.0,0.,12.0,0.,12.0,0.,12.0
1981-08-28 18:49:39.780 ,2,1,0.,12.0,0.,12.0,0.,12.0,0.,12.0
1981-08-28 18:49:51.780 ,2,1,0.,12.0,0.,12.0,0.,12.0,0.,12.0
1981-08-28 18:50:03.780 ,2,0,0.,12.0,0.,12.0,0.,12.0,0.,12.0
1981-08-28 18:50:15.780 ,2,0,0.,12.0,0.,12.0,0.,12.0,0.,12.0
1981-08-28 18:50:27.780 ,3,1,0.,12.0,0.,12.0,0.,12.0,0.,12.0
1981-08-28 18:50:39.780 ,3,1,0.,12.0,0.,12.0,0.,12.0,0.,12.0
1981-08-28 18:50:51.780 ,3,0,0.,12.0,0.,12.0,0.,12.0,0.,12.0
1981-08-28 18:51:03.780 ,3,0,0.,12.0,0.,12.0,0.,12.0,0.,12.0
1981-08-28 18:51:15.780 ,4,1,0.,12.0,0.,12.0,0.,12.0,0.,12.0
1981-08-28 18:51:27.780 ,4,1,0.,12.0,0.,12.0,0.,12.0,0.,12.0
1981-08-28 18:51:39.780 ,4,0,0.,12.0,0.,12.0,0.,12.0,0.,12.0
1981-08-28 18:51:51.780 ,4,0,0.,12.0,0.,12.0,0.,12.0,0.,12.0
1981-08-28 18:52:03.780 ,5,1,0.,12.0,0.,12.0,0.,12.0,0.,12.0
1981-08-28 18:52:15.780 ,5,1,0.,12.0,0.,12.0,0.,12.0,0.,12.0
1981-08-28 18:52:27.780 ,5,0,0.,12.0,0.,12.0,0.,12.0,0.,12.0
1981-08-28 18:52:39.780 ,5,0,0.,12.0,0.,12.0,0.,12.0,0.,12.0
1981-08-28 18:52:51.780 ,6,1,0.,12.0,0.,12.0,0.,12.0,0.,12.0
1981-08-28 18:53:03.780 ,6,1,0.,12.0,0.,12.0,0.,12.0,0.,12.0
1981-08-28 18:53:15.780 ,6,0,0.,12.0,0.,12.0,0.,12.0,0.,12.0
1981-08-28 18:53:27.780 ,6,0,0.,12.0,0.,12.0,0.,12.0,0.,12.0
1981-08-28 18:53:39.780 ,7,1,0.,12.0,0.,12.0,0.,12.0,0.,12.0
1981-08-28 18:53:51.780 ,7,1,0.,12.0,0.,12.0,0.,12.0,0.,12.0
1981-08-28 18:54:03.780 ,7,0,0.,12.0,0.,12.0,0.,12.0,0.,12.0
1981-08-28 18:54:15.780 ,7,0,0.,12.0,0.,12.0,0.,12.0,0.,12.0
1981-08-28 18:54:27.780 ,7,1,0.,12.0,0.,12.0,0.,12.0,0.,12.0
1981-08-28 18:54:39.780 ,7,1,0.,12.0,0.,12.0,0.,12.0,0.,12.0
1981-08-28 18:54:51.780 ,6,1,0.,12.0,0.,12.0,0.,12.0,0.,12.0
1981-08-28 18:55:03.780 ,6,1,0.,12.0,0.,12.0,0.,12.0,0.,12.0
1981-08-28 18:55:15.780 ,5,1,0.,12.0,0.,12.0,0.,12.0,0.,12.0
1981-08-28 18:55:27.780 ,5,1,0.,12.0,0.,12.0,0.,12.0,0.,12.0
1981-08-28 18:55:39.780 ,4,1,0.,12.0,0.,12.0,0.,12.0,0.,12.0
1981-08-28 18:55:51.780 ,4,1,0.,12.0,0.,12.0,0.,12.0,0.,12.0
1981-08-28 18:56:03.780 ,3,1,0.,12.0,0.,12.0,0.,12.0,0.,12.0
1981-08-28 18:56:15.780 ,3,1,0.,12.0,0.,12.0,0.,12.0,0.,12.0
1981-08-28 18:56:27.780 ,2,1,0.,12.0,0.,12.0,0.,12.0,0.,12.0
1981-08-28 18:56:39.780 ,2,1,0.,12.0,0.,12.0,0.,12.0,0.,12.0
1981-08-28 18:56:51.780 ,1,1,0.,12.0,0.,12.0,0.,12.0,0.,12.0
1981-08-28 18:57:03.780 ,1,1,0.,12.0,0.,12.0,0.,12.0,0.,12.0
1981-08-28 18:57:15.780 ,0,1,0.,12.0,0.,12.0,0.,12.0,0.,12.0
1981-08-28 18:57:27.780 ,0,1,0.,12.0,0.,12.0,0.,12.0,0.,12.0
1981-08-28 18:57:39.780 ,0,1,0.,12.0,0.,12.0,0.,12.0,0.,12.0
1981-08-28 18:57:51.780 ,0,1,0.,12.0,0.,12.0,0.,12.0,0.,12.0
1981-08-28 18:58:03.780 ,1,1,0.,12.0,0.,12.0,0.,12.0,0.,12.0
1981-08-28 18:58:15.780 ,1,1,0.,12.0,0.,12.0,0.,12.0,0.,12.0
1981-08-28 18:58:27.780 ,2,1,0.,12.0,0.,12.0,0.,12.0,0.,12.0
1981-08-28 18:58:39.780 ,2,1,0.,12.0,0.,12.0,0.,12.0,0.,12.0
1981-08-28 18:58:51.780 ,3,1,0.,12.0,0.,12.0,0.,12.0,0.,12.0
1981-08-28 18:59:03.780 ,3,1,0.,12.0,0.,12.0,0.,12.0,0.,12.0
1981-08-28 18:59:15.780 ,4,1,0.,12.0,0.,12.0,0.,12.0,0.,12.0
1981-08-28 18:59:27.780 ,4,1,0.,12.0,0.,12.0,0.,12.0,0.,12.0
1981-08-28 18:59:39.780 ,5,1,0.,12.0,0.,12.0,0.,12.0,0.,12.0
1981-08-28 18:59:51.780 ,5,1,0.,12.0,0.,12.0,0.,12.0,0.,12.0
1981-08-28 19:00:03.780 ,6,1,0.,12.0,0.,12.0,0.,12.0,0.,12.0
1981-08-28 19:00:15.780 ,6,1,0.,12.0,0.,12.0,0.,12.0,0.,12.0
1981-08-28 19:00:27.780 ,7,1,0.,12.0,0.,12.0,0.,12.0,0.,12.0
1981-08-28 19:00:39.780 ,7,1,0.,12.0,0.,12.0,0.,12.0,0.,12.0
1981-08-28 19:00:51.780 ,7,1,0.,12.0,0.,12.0,0.,12.0,0.,12.0
1981-08-28 19:01:03.780 ,7,1,0.,12.0,0.,12.0,0.,12.0,0.,12.0
1981-08-28 19:01:15.780 ,7,0,0.,12.0,0.,12.0,0.,12.0,0.,12.0
1981-08-28 19:01:27.780 ,7,0,0.,12.0,0.,12.0,0.,12.0,0.,12.0
1981-08-28 19:01:39.780 ,6,1,0.,12.0,0.,12.0,0.,12.0,0.,12.0
1981-08-28 19:01:51.780 ,6,1,0.,12.0,0.,12.0,0.,12.0,0.,12.0
1981-08-28 19:02:03.780 ,6,0,0.,12.0,0.,12.0,0.,12.0,0.,12.0
1981-08-28 19:02:15.780 ,6,0,0.,12.0,0.,12.0,0.,12.0,0.,12.0
1981-08-28 19:02:27.780 ,5,1,0.,12.0,0.,12.0,0.,12.0,0.,12.0
1981-08-28 19:02:39.780 ,5,1,0.,12.0,0.,12.0,0.,12.0,0.,12.0
1981-08-28 19:02:51.780 ,5,0,0.,12.0,0.,12.0,0.,12.0,0.,12.0
1981-08-28 19:03:03.780 ,5,0,0.,12.0,0.,12.0,0.,12.0,0.,12.0
1981-08-28 19:03:15.780 ,4,1,0.,12.0,0.,12.0,0.,12.0,0.,12.0
1981-08-28 19:03:27.780 ,4,1,0.,12.0,0.,12.0,0.,12.0,0.,12.0
1981-08-28 19:03:39.780 ,4,0,0.,12.0,0.,12.0,0.,12.0,0.,12.0
1981-08-28 19:03:51.780 ,4,0,0.,12.0,0.,12.0,0.,12.0,0.,12.0
1981-08-28 19:04:03.780 ,3,1,0.,12.0,0.,12.0,0.,12.0,0.,12.0
1981-08-28 19:04:15.780 ,3,1,0.,12.0,0.,12.0,0.,12.0,0.,12.0
1981-08-28 19:04:27.780 ,3,0,0.,12.0,0.,12.0,0.,12.0,0.,12.0
1981-08-28 19:04:39.780 ,3,0,0.,12.0,0.,12.0,0.,12.0,0.,12.0
1981-08-28 19:04:51.780 ,2,1,0.,12.0,0.,12.0,0.,12.0,0.,12.0
1981-08-28 19:05:03.780 ,2,1,0.,12.0,0.,12.0,0.,12.0,0.,12.0
1981-08-28 19:05:15.780 ,2,0,0.,12.0,0.,12.0,0.,12.0,0.,12.0
1981-08-28 19:05:27.780 ,2,0,0.,12.0,0.,12.0,0.,12.0,0.,12.0
1981-08-28 19:05:39.780 ,1,1,0.,12.0,0.,12.0,0.,12.0,0.,12.0
1981-08-28 19:05:51.780 ,1,1,0.,12.0,0.,12.0,0.,12.0,0.,12.0
1981-08-28 19:06:03.780 ,1,0,0.,12.0,0.,12.0,0.,12.0,0.,12.0
1981-08-28 19:06:15.780 ,1,0,0.,12.0,0.,12.0,0.,12.0,0.,12.0
1981-08-28 19:06:27.780 ,0,1,0.,12.0,0.,12.0,0.,12.0,0.,12.0
1981-08-28 19:06:39.780 ,0,1,0.,12.0,0.,12.0,0.,12.0,0.,12.0
1981-08-28 19:06:51.780 ,0,0,0.,12.0,0.,12.0,0.,12.0,0.,12.0
1981-08-28 19:07:03.780 ,0,0,0.,12.0,0.,12.0,0.,12.0,0.,12.0
1981-08-28 19:07:15.780 ,0,1,0.,12.0,0.,12.0,0.,12.0,0.,12.0
1981-08-28 19:07:27.780 ,0,1,0.,12.0,0.,12.0,0.,12.0,0.,12.0
1981-08-28 19:07:39.780 ,0,0,0.,12.0,0.,12.0,0.,12.0,0.,12.0
1981-08-28 19:07:51.780 ,0,0,0.,12.0,0.,12.0,0.,12.0,0.,12.0
1981-08-28 19:08:03.780 ,1,1,0.,12.0,0.,12.0,0.,12.0,0.,12.0
1981-08-28 19:08:15.780 ,1,1,0.,12.0,0.,12.0,0.,12.0,0.,12.0
1981-08-28 19:08:27.780 ,1,0,0.,12.0,0.,12.0,0.,12.0,0.,12.0
1981-08-28 19:08:39.780 ,1,0,0.,12.0,0.,12.0,0.,12.0,0.,12.0
1981-08-28 19:08:51.780 ,2,1,0.,12.0,0.,12.0,0.,12.0,0.,12.0
1981-08-28 19:09:03.780 ,2,1,0.,12.0,0.,12.0,0.,12.0,0.,12.0
1981-08-28 19:09:15.780 ,2,0,0.,12.0,0.,12.0,0.,12.0,0.,12.0
1981-08-28 19:09:27.780 ,2,0,0.,12.0,0.,12.0,0.,12.0,0.,12.0
1981-08-28 19:09:39.780 ,3,1,0.,12.0,0.,12.0,0.,12.0,0.,12.0
1981-08-28 19:09:51.780 ,3,1,0.,12.0,0.,12.0,0.,12.0,0.,12.0
1981-08-28 19:10:03.780 ,3,0,0.,12.0,0.,12.0,0.,12.0,0.,12.0
1981-08-28 19:10:15.780 ,3,0,0.,12.0,0.,12.0,0.,12.0,0.,12.0
1981-08-28 19:10:27.780 ,4,1,0.,12.0,0.,12.0,0.,12.0,0.,12.0
1981-08-28 19:10:39.780 ,4,1,0.,12.0,0.,12.0,0.,12.0,0.,12.0
1981-08-28 19:10:51.780 ,4,0,0.,12.0,0.,12.0,0.,12.0,0.,12.0
1981-08-28 19:11:03.780 ,4,0,0.,12.0,0.,12.0,0.,12.0,0.,12.0
1981-08-28 19:11:15.780 ,5,1,0.,12.0,0.,12.0,0.,12.0,0.,12.0
1981-08-28 19:11:27.780 ,5,1,0.,12.0,0.,12.0,0.,12.0,0.,12.0
1981-08-28 19:11:39.780 ,5,0,0.,12.0,0.,12.0,0.,12.0,0.,12.0
1981-08-28 19:11:51.780 ,5,0,0.,12.0,0.,12.0,0.,12.0,0.,12.0
1981-08-28 19:12:03.780 ,6,1,0.,12.0,0.,12.0,0.,12.0,0.,12.0
1981-08-28 19:12:15.780 ,6,1,0.,12.0,0.,12.0,0.,12.0,0.,12.0
1981-08-28 19:12:27.780 ,6,0,0.,12.0,0.,12.0,0.,12.0,0.,12.0
1981-08-28 19:12:39.780 ,6,0,0.,12.0,0.,12.0,0.,12.0,0.,12.0
1981-08-28 19:12:51.780 ,7,1,0.,12.0,0.,12.0,0.,12.0,0.,12.0
1981-08-28 19:13:03.780 ,7,1,0.,12.0,0.,12.0,0.,12.0,0.,12.0
1981-08-28 19:13:15.780 ,7,0,0.,12.0,0.,12.0,0.,12.0,0.,12.0
1981-08-28 19:13:27.780 ,7,0,0.,12.0,0.,12.0,0.,12.0,0.,12.0
1981-08-28 19:13:39.780 ,7,1,0.,12.0,0.,12.0,0.,12.0,0.,12.0
1981-08-28 19:13:51.780 ,7,1,0.,12.0,0.,12.0,0.,12.0,0.,12.0
1981-08-28 19:14:03.780 ,6,1,0.,12.0,0.,12.0,0.,12.0,0.,12.0
1981-08-28 19:14:15.780 ,6,1,0.,12.0,0.,12.0,0.,12.0,0.,12.0
1981-08-28 19:14:27.780 ,5,1,0.,12.0,0.,12.0,0.,12.0,0.,12.0
1981-08-28 19:14:39.780 ,5,1,0.,12.0,0.,12.0,0.,12.0,0.,12.0
1981-08-28 19:14:51.780 ,4,1,0.,12.0,0.,12.0,0.,12.0,0.,12.0
1981-08-28 19:15:03.780 ,4,1,0.,12.0,0.,12.0,0.,12.0,0.,12.0
1981-08-28 19:15:15.780 ,3,1,0.,12.0,0.,12.0,0.,12.0,0.,12.0
1981-08-28 19:15:27.780 ,3,1,0.,12.0,0.,12.0,0.,12.0,0.,12.0
1981-08-28 19:15:39.780 ,2,1,0.,12.0,0.,12.0,0.,12.0,0.,12.0
1981-08-28 19:15:51.780 ,2,1,0.,12.0,0.,12.0,0.,12.0,0.,12.0
1981-08-28 19:16:03.780 ,1,1,0.,12.0,0.,12.0,0.,12.0,0.,12.0
1981-08-28 19:16:15.780 ,1,1,0.,12.0,0.,12.0,0.,12.0,0.,12.0
1981-08-28 19:16:27.780 ,0,1,0.,12.0,0.,12.0,0.,12.0,0.,12.0
1981-08-28 19:16:39.780 ,0,1,0.,12.0,0.,12.0,0.,12.0,0.,12.0
1981-08-28 19:16:51.780 ,0,1,0.,12.0,0.,12.0,0.,12.0,0.,12.0
1981-08-28 19:17:03.780 ,0,1,0.,12.0,0.,12.0,0.,12.0,0.,12.0
1981-08-28 19:17:15.780 ,1,1,0.,12.0,0.,12.0,0.,12.0,0.,12.0
1981-08-28 19:17:27.780 ,1,1,0.,12.0,0.,12.0,0.,12.0,0.,12.0